www.pogodaiklimat.ru

Погода и климат >> Архив погоды >> Россия >> Саратовская область >> Карабулак


ПОГОДА в Карабулаке

  • Прогноз погоды в Карабулаке
  • Монитор погоды в Карабулаке

АРХИВ ПОГОДЫ в Карабулаке

Время (UTC), дата Ветер
(напр.,м/с)
 
Видим.   Явления Облачность Т
(С)
Тd
(С)
f
(%)
Тe
(С)
Тes
(С)
Комфортность P
(гПа)
Po
(гПа)
Тmin
(С)
Tmax
(С)
R
(мм)
R24
(мм)
S
(см)
21 16.05 С 6
{11}
10 км 4/0
[Ci fib]
+13.5 +11.1 85 +11 +11 1016.9 981.4
00 17.05 С 5
{10}
10 км 3/0
[Ci sp]
+10.6 +9.2 91 +8 +8 1018.3 982.4
03 17.05 С 5 20 км 8/0
[Ci fib]
+10.3 +6.0 75 +7 +8 1019.5 983.5 +9.3
06 17.05 СВ 7-10
{10}
20 км 4/3 600 м
[Cu med, cong Ci fib]
+13.3 +4.6 56 +11 +13 1020.1 984.4
09 17.05 С 4-11
{11}
20 км 5/5 600 м
[Cu med, cong]
+15.5 +3.4 44 +15 +20 1019.6 984.2
12 17.05 СЗ 5
{11}
20 км 4/4 1000 м
[Cu hum]
+17.2 +1.9 36 +17 +20 1018.4 983.2
15 17.05 СЗ 3
{10}
20 км 3/3 1000 м
[Sc diur, vesp]
+16.5 +1.4 36 +16 +17 1018.0 982.7 +17.5
18 17.05 С 4 10 км ясно +11.3 +1.6 51 +9 +9 1019.3 983.4
21 17.05 С 2 10 км ясно +8.5 +1.0 59 +7 +7 1019.2 982.9
00 18.05 З 2 10 км ясно +5.6 +0.8 71 +3 +3 1019.5 982.9
03 18.05 СЗ 2 20 км ясно +8.1 +3.0 70 +6 +8 1018.9 982.6 +4.6
06 18.05 СЗ 5 20 км ясно +14.6 +0.8 39 +13 +19 1017.0 981.6
09 18.05 СЗ 6 20 км 3/3 1000 м
[Cu hum]
+17.7 +1.5 34 +17 +21 1014.8 979.8
12 18.05 СЗ 8-11
{13}
20 км 8/8 1000 м
[Cu hum]
+19.2 +2.1 32 +19 +19 1012.5 977.8
15 18.05 СЗ 6-10
{12}
20 км 8/8 1000 м
[Sc]
+19.1 +2.1 32 +19 +19 1011.1 976.4 +20.1
18 18.05 СЗ 1
{10}
10 км 3/0
[Ci fib]
+13.5 +2.9 49 +14 +14 1012.2 976.8
21 18.05 СЗ 1 10 км ясно +10.7 +2.2 56 +11 +11 1012.9 977.1
00 19.05 С 3 10 км ясно +7.2 +1.0 65 +5 +5 1013.6 977.4
03 19.05 З 3 20 км ясно +9.5 +1.5 57 +8 +9 1013.4 977.4 +5.9
06 19.05 СЗ 5 20 км 3/0
[Ci sp]
+15.5 +1.1 38 +14 +20 1017.7 976.6
09 19.05 СЗ 9-12
{14}
20 км 9/9 600 м
[Cu med, cong]
+18.0 +2.3 35 +17 +17 1010.4 975.6
12 19.05 СЗ 8-13
{14}
20 км 8/8 1000 м
[Cu med, cong]
+16.8 +1.5 36 +16 +16 1010.8 975.8
15 19.05 С 8-13
{13}
20 км 3/3 1000 м
[Cu hum]
+14.3 -1.0 35 +12 +12 1012.7 977.3 +18.5
18 19.05 С 3
{13}
10 км ясно +8.8 -2.1 46 +7 +7 1015.9 979.7
21 19.05 С 2 10 км ясно +4.6 -1.9 63 +2 +2 1017.8 981.1
00 20.05 СЗ 2 10 км ясно +1.5 -2.2 76 -2 -2 1019.5 982.3
03 20.05 СЗ 3 20 км ясно +3.8 -0.8 72 0 +2 1020.6 983.7 +0.9
06 20.05 С 3
{10}
20 км 8/8 600 м
[Sc diur, vesp]
+9.4 -1.7 46 +8 +9 1020.5 984.3
09 20.05 СЗ 4
{10}
20 км 8/8 600 м
[Sc diur, vesp]
+11.5 -2.1 39 +10 +12 1019.9 984.0
12 20.05 С 8-11
{11}
20 км 9/9 600 м
[Sc diur, vesp]
+13.3 -1.3 36 +11 +11 1019.1 983.5
15 20.05 СЗ 7-11
{11}
20 км 8/8 600 м
[Sc diur, vesp]
+12.6 -3.0 34 +10 +10 1019.1 983.3 +13.6
18 20.05 СЗ 2
{11}
10 км 8/0
[As op]
+7.9 -2.0 50 +6 +6 1020.8 984.4
21 20.05 З 2 10 км 9/0
[Ac As]
+6.9 -0.1 61 +5 +5 1021.4 984.8
00 21.05 З 2 10 км 9/0
[Ac As]
+5.9 0.0 66 +4 +4 1021.9 985.2
03 21.05 СЗ 2 20 км 5/0
[Ac trans]
+7.8 +1.3 63 +6 +8 1022.7 986.2 +4.1
06 21.05 СЗ 3 20 км 3/1 1000 м
[Cu hum Ci fib]
+13.3 -0.4 39 +12 +20 1022.2 986.4
09 21.05 З 3 20 км 8/6 1000 м
[Cu hum Ci fib]
+15.6 -0.3 34 +15 +20 1021.2 985.7
12 21.05 СЗ 3 20 км 5/4 1000 м
[Cu hum Ci fib]
+18.9 +0.3 29 +19 +24 1019.4 984.4
15 21.05 СЗ 3 20 км 4/0
[Ci fib]
+18.5 -0.2 28 +19 +20 1018.4 983.4 +19.5
18 21.05 СЗ 5 10 км 5/0
[Ci fib]
+13.7 -0.7 37 +12 +12 1019.0 983.4
21 21.05 ЮВ 3 10 км 8/0
[Ac und]
+13.0 -1.7 36 +12 +12 1019.1 983.4
00 22.05 ЮЗ 2 10 км 8/0
[Ci sp]
+10.4 -0.1 48 +9 +9 1018.8 982.8
03 22.05 ЮЗ 2 20 км 8/0
[Ci fib]
+12.7 +0.9 44 +12 +14 1017.8 982.1 +9.8
06 22.05 ЮЗ 5
{11}
20 км 9/0
[Ac und Ci fib]
+18.5 +3.9 38 +18 +21 1016.6 981.6
09 22.05 З 5 20 км 9/8 600 м
[Sc Ci fib]
+21.2 +5.0 35 +22 +23 комфорт 1015.1 980.5
12 22.05 Ю 5
{10}
20 км 9/6 600 м
[Sc diur, vesp Ci fib]
+23.1 +3.6 28 +23 +25 комфорт 1013.1 978.8
15 22.05 Ю 5
{10}
20 км 9/5 600 м
[Sc diur, vesp Ci fib]
+21.8 +2.8 29 +22 +22 комфорт 1012.0 977.6 +23.5
18 22.05 ЮЗ 1 10 км 9/3 600 м
[Sc diur, vesp Ci fib]
+17.4 +4.7 43 +18 +18 1012.4 977.5
21 22.05 ЮЗ 3 10 км 8/0
[Ci fib]
+13.5 +5.1 57 +13 +13 1012.6 977.2
00 23.05 ЮЗ 2 10 км 6/0
[Ci fib]
+13.6 +4.3 53 +13 +13 1011.6 976.3
03 23.05 Ю 2 20 км 8/0
[Ac trans Ci sp]
+13.9 +5.5 57 +14 +15 1010.7 975.5 +12.1
06 23.05 Ю 3 20 км 9/0
[Ci fib]
+19.4 +6.9 44 +20 +28 1009.0 974.5
09 23.05 ЮЗ 6
{11}
20 км 9/4 600 м
[Sc diur, vesp Ci fib]
+21.4 +4.4 33 +22 +25 комфорт 1007.3 973.0
12 23.05 Ю 4
{11}
20 км 9/6 600 м
[Sc diur, vesp Ci fib]
+20.9 +9.3 47 +23 +25 комфорт 1005.1 970.9
15 23.05 Ю 3 20 км 9/5 600 м
[Sc diur, vesp Ci fib]
+19.7 +11.3 58 +21 +22 комфорт 1004.3 970.0 +21.9
18 23.05 Ю 3 10 км 8/5 600 м
[Sc diur, vesp Ci fib]
+16.6 +10.5 67 +16 +16 1004.9 970.2

 

Местоположение метеостанции Карабулак (Саратовская область, Россия): широта 52.33 долгота 46.37 высота над уровнем моря 302 м.

В архиве по умолчанию представлена погода в Карабулаке за последнюю неделю. Архивные данные за месяц целиком и за предыдущие месяцы, начиная с января 2011 года, Вы можете получить, выбрав интересующий диапазон дат из раскрывающегося списка и нажав кнопку "Ввод!".


*Определитесь, кто Вы:
робот инопланетянин человек

Внимание! Время в таблицах - всемирное. Для получения местного времени необходимо прибавить поправку, которая равна 4 ч.

Смотрите также архив погоды в соседних городах и на ближайших метеорологических станциях:

Погода в Петровске (Саратовская область, Россия) (66 км)
Погода в Маркс (Саратовская область, Россия) (74 км)
Погода в Радищево (Пензенская область, Россия) (80 км)
Погода в Саратове (Саратовская область, Россия) (88 км)
Погода в Саратове ЮВ (Саратовская область, Россия) (88 км)
Погода в Октябрьском Городке (Саратовская область, Россия) (100 км)
Погода в Кондоле (Пензенская область, Россия) (103 км)
Погода в Балаково (Саратовская область, Россия) (105 км)
Погода в Аткарске (Саратовская область, Россия) (105 км)
Погода в Городище (Пензенская область, Россия) (115 км)

Пояснения к столбцам:

Ветер - указаны скорость ветра в м/с - средняя за 10 мин, порывы в срок и между сроками (в фигурных скобках) и направление, откуда дует ветер: С - северный, СВ - северо-восточный, В - восточный, ЮВ - юго-восточный, Ю - южный, ЮЗ - юго-западный, З - западный, СЗ - северо-западный.
Видимость - горизонтальная дальность видимости в метрах или километрах. При видимости от 1 до 10 км при отсутствии осадков обычно наблюдается дымка, при ухудшении видимости до 1 км и менее - туман. В сухую погоду видимость может ухудшаться дымом, пылью или мглою.
Явления - указаны атмосферные явления, наблюдавшиеся в срок или в последний час перед сроком; фигурными скобками обозначены явления, наблюдавшиеся между сроками (за 1-3 часа до срока); квадратными скобками обозначены град или гололедные отложения с указанием их диаметра в мм.
Облачность - указаны через наклонную черту общая и нижняя облачность в баллах и высота нижней границы облаков в метрах; квадратными скобками обозначены формы облаков: Ci - перистые, Cs - перисто-слоистые, Cc - перисто-кучевые, Ac - высококучевые, As - высокослоистые, Sc - слоисто-кучевые, Ns - слоисто-дождевые, Cu - кучевые, Cb - кучево-дождевые. Подробнее классификацию облаков см. в Атласе облаков (PDF).
T - Температура воздуха - температура, измеренная на высоте 2 м над землей.
Td - Температура точки росы - температура, при понижении до которой содержащийся в воздухе водяной пар достигнет насыщения.
f - Относительная влажность воздуха - влажноcть воздуха, измеренная на высоте 2 м над землей.
Te - Эффективная температура - температура, которую ощущает одетый по сезону человек в тени. Характеристика душности погоды. При расчете учитывается влияние влажности воздуха и скорости ветра на теплоощущения человека.
Tes - Эффективная температура на солнце - температура, которую ощущает человек, с поправкой на солнечный нагрев. Характеристика знойности погоды. Зависит от высоты солнца над горизонтом, облачности и скорости ветра. Ночью, в пасмурную погоду, а также при ветре 12 м/с и более поправка равна нулю.
P - Атмосферное давление - приведенное к уровню моря атмосферное давление.
Po - Атмосферное давление - измеренное на уровне метеостанции атмосферное давление.
Tmin - Минимальная температура - минимум температуры воздуха на высоте 2 м над землей.
Tmax - Максимальная температура - максимум температуры воздуха на высоте 2 м над землей.
R - Количество осадков - Количество выпавших осадков за период времени, мм. При наведении курсора мыши на число - период времени, за который выпало указанное количество осадков.
R24 - Количество осадков - Количество выпавших осадков за 24 часа, мм.
S - Снежный покров - Высота снежного покрова, см. При наведении курсора мыши на число - состояние снежного покрова и степень покрытия местности в баллах.